SB KEPS @ AMSAT $ORB14233.O Orbital Elements 14233.OSCAR
HR AMSAT ORBITAL ELEMENTS FOR OSCAR SATELLITES FROM WA5QGD FORT WORTH,TX August 21, 2014 BID: ORB14233.O TO ALL RADIO AMATEURS BT
Satellite: AO-07 Catalog number: 07530 Epoch time: 14233.50851723 Element set: 44 Inclination: 101.4785 deg RA of node: 213.2045 deg Eccentricity: 0.0012026 Arg of perigee: 165.2923 deg Mean anomaly: 315.9189 deg Mean motion: 12.53606710 rev/day Decay rate: -4.1e-07 rev/day^2 Epoch rev: 81970 Checksum: 265
Satellite: FO-29 Catalog number: 24278 Epoch time: 14233.29875301 Element set: 445 Inclination: 098.5135 deg RA of node: 238.1732 deg Eccentricity: 0.0351505 Arg of perigee: 128.6430 deg Mean anomaly: 302.9668 deg Mean motion: 13.53027550 rev/day Decay rate: -.00000000 rev/day^2 Epoch rev: 88947 Checksum: 300
Satellite: SO-33 Catalog number: 25509 Epoch time: 14233.15419091 Element set: 819 Inclination: 031.4323 deg RA of node: 152.2650 deg Eccentricity: 0.0349214 Arg of perigee: 323.5470 deg Mean anomaly: 141.0904 deg Mean motion: 14.29573950 rev/day Decay rate: 3.26e-06 rev/day^2 Epoch rev: 82645 Checksum: 282
Satellite: RS-22 Catalog number: 27939 Epoch time: 14233.72198156 Element set: 781 Inclination: 097.8134 deg RA of node: 044.6306 deg Eccentricity: 0.0011975 Arg of perigee: 258.8290 deg Mean anomaly: 101.1555 deg Mean motion: 14.65281545 rev/day Decay rate: 2.33e-06 rev/day^2 Epoch rev: 58232 Checksum: 311
Satellite: HO-68 Catalog number: 36122 Epoch time: 14233.70358085 Element set: 872 Inclination: 100.2423 deg RA of node: 283.5672 deg Eccentricity: 0.0007724 Arg of perigee: 089.0549 deg Mean anomaly: 271.1450 deg Mean motion: 13.16317592 rev/day Decay rate: -4.3e-07 rev/day^2 Epoch rev: 22505 Checksum: 285
Satellite: AO-73 Catalog number: 39444 Epoch time: 14233.06298199 Element set: 226 Inclination: 097.7690 deg RA of node: 301.4985 deg Eccentricity: 0.0062679 Arg of perigee: 033.1976 deg Mean anomaly: 327.3183 deg Mean motion: 14.78497002 rev/day Decay rate: 7.78e-06 rev/day^2 Epoch rev: 3905 Checksum: 346
Satellite: EO-79 Catalog number: 40025 Epoch time: 14233.70047925 Element set: 177 Inclination: 097.9766 deg RA of node: 128.4563 deg Eccentricity: 0.0014731 Arg of perigee: 082.1439 deg Mean anomaly: 278.1446 deg Mean motion: 14.85337654 rev/day Decay rate: 8.45e-06 rev/day^2 Epoch rev: 931 Checksum: 323
/EX SB KEPS @ AMSAT $ORB14233.D Orbital Elements 14233.MICROS
HR AMSAT ORBITAL ELEMENTS FOR THE MICROSATS FROM WA5QGD FORT WORTH,TX August 21, 2014 BID: ORB14233.D TO ALL RADIO AMATEURS BT
Satellite: UO-11 Catalog number: 14781 Epoch time: 14233.20179473 Element set: 578 Inclination: 097.8464 deg RA of node: 292.0438 deg Eccentricity: 0.0007649 Arg of perigee: 336.8899 deg Mean anomaly: 023.1969 deg Mean motion: 14.81688315 rev/day Decay rate: 3.48e-06 rev/day^2 Epoch rev: 63759 Checksum: 357
Satellite: AO-16 Catalog number: 20439 Epoch time: 14233.83403440 Element set: 95 Inclination: 098.5094 deg RA of node: 169.9426 deg Eccentricity: 0.0010034 Arg of perigee: 330.6483 deg Mean anomaly: 089.4037 deg Mean motion: 14.32377267 rev/day Decay rate: 6.4e-07 rev/day^2 Epoch rev: 28388 Checksum: 308
Satellite: LO-19 Catalog number: 20442 Epoch time: 14233.38004209 Element set: 33 Inclination: 098.4802 deg RA of node: 169.9552 deg Eccentricity: 0.0010820 Arg of perigee: 319.5665 deg Mean anomaly: 040.4714 deg Mean motion: 14.32577998 rev/day Decay rate: 4.8e-07 rev/day^2 Epoch rev: 28401 Checksum: 294
Satellite: AO-27 Catalog number: 22825 Epoch time: 14233.83383676 Element set: 742 Inclination: 098.6667 deg RA of node: 179.5791 deg Eccentricity: 0.0009618 Arg of perigee: 105.2272 deg Mean anomaly: 308.0543 deg Mean motion: 14.29736947 rev/day Decay rate: 4.0e-07 rev/day^2 Epoch rev: 9016 Checksum: 328
Satellite: IO-26 Catalog number: 22826 Epoch time: 14233.45519100 Element set: 499 Inclination: 098.6608 deg RA of node: 179.4114 deg Eccentricity: 0.0010176 Arg of perigee: 099.5871 deg Mean anomaly: 260.6461 deg Mean motion: 14.30039241 rev/day Decay rate: 3.8e-07 rev/day^2 Epoch rev: 9024 Checksum: 295
Satellite: GO-32 Catalog number: 25397 Epoch time: 14232.90097454 Element set: 421 Inclination: 098.4749 deg RA of node: 188.4949 deg Eccentricity: 0.0002454 Arg of perigee: 112.7880 deg Mean anomaly: 313.6349 deg Mean motion: 14.23455616 rev/day Decay rate: -7.0e-08 rev/day^2 Epoch rev: 83707 Checksum: 325
Satellite: NO-44 Catalog number: 26931 Epoch time: 14233.43380730 Element set: 677 Inclination: 067.0504 deg RA of node: 230.2027 deg Eccentricity: 0.0007280 Arg of perigee: 279.3950 deg Mean anomaly: 080.6328 deg Mean motion: 14.30138671 rev/day Decay rate: 1.4e-07 rev/day^2 Epoch rev: 67293 Checksum: 284
Satellite: SO-50 Catalog number: 27607 Epoch time: 14233.83558689 Element set: 479 Inclination: 064.5577 deg RA of node: 032.2083 deg Eccentricity: 0.0055705 Arg of perigee: 352.5442 deg Mean anomaly: 007.4825 deg Mean motion: 14.73864264 rev/day Decay rate: 2.50e-06 rev/day^2 Epoch rev: 62715 Checksum: 320
Satellite: CO-55 Catalog number: 27844 Epoch time: 14232.95793259 Element set: 996 Inclination: 098.6989 deg RA of node: 240.7990 deg Eccentricity: 0.0010930 Arg of perigee: 090.2876 deg Mean anomaly: 331.1671 deg Mean motion: 14.21540748 rev/day Decay rate: 1.36e-06 rev/day^2 Epoch rev: 57778 Checksum: 357
Satellite: CO-57 Catalog number: 27848 Epoch time: 14233.55208909 Element set: 938 Inclination: 098.7083 deg RA of node: 241.1313 deg Eccentricity: 0.0010864 Arg of perigee: 094.8230 deg Mean anomaly: 026.7392 deg Mean motion: 14.21223752 rev/day Decay rate: 8.8e-07 rev/day^2 Epoch rev: 57778 Checksum: 326
Satellite: AO-51 Catalog number: 28375 Epoch time: 14232.41735488 Element set: 913 Inclination: 098.2547 deg RA of node: 177.1557 deg Eccentricity: 0.0083840 Arg of perigee: 157.5326 deg Mean anomaly: 202.9570 deg Mean motion: 14.41412097 rev/day Decay rate: 6.4e-07 rev/day^2 Epoch rev: 53316 Checksum: 313
Satellite: CP3 Catalog number: 31129 Epoch time: 14233.51660314 Element set: 825 Inclination: 097.9403 deg RA of node: 208.2139 deg Eccentricity: 0.0098910 Arg of perigee: 166.6858 deg Mean anomaly: 313.0228 deg Mean motion: 14.54787350 rev/day Decay rate: 3.80e-06 rev/day^2 Epoch rev: 38953 Checksum: 308
Satellite: CO-65 Catalog number: 32785 Epoch time: 14233.45194750 Element set: 33 Inclination: 097.6935 deg RA of node: 282.5896 deg Eccentricity: 0.0012717 Arg of perigee: 339.4625 deg Mean anomaly: 145.6257 deg Mean motion: 14.85455313 rev/day Decay rate: 7.00e-06 rev/day^2 Epoch rev: 34171 Checksum: 321
Satellite: PRISM Catalog number: 33493 Epoch time: 14233.84088704 Element set: 219 Inclination: 098.2529 deg RA of node: 052.3109 deg Eccentricity: 0.0016541 Arg of perigee: 227.2299 deg Mean anomaly: 132.7533 deg Mean motion: 14.89762593 rev/day Decay rate: 1.280e-05 rev/day^2 Epoch rev: 30195 Checksum: 306
Satellite: SOHLA-1 Catalog number: 33496 Epoch time: 14233.42367778 Element set: 433 Inclination: 098.1779 deg RA of node: 354.5415 deg Eccentricity: 0.0006892 Arg of perigee: 046.6572 deg Mean anomaly: 353.5999 deg Mean motion: 14.70861771 rev/day Decay rate: 1.95e-06 rev/day^2 Epoch rev: 29910 Checksum: 347
Satellite: TISAT-1 Catalog number: 36799 Epoch time: 14233.74536022 Element set: 481 Inclination: 098.0170 deg RA of node: 326.2428 deg Eccentricity: 0.0015293 Arg of perigee: 106.3004 deg Mean anomaly: 253.9887 deg Mean motion: 14.85904199 rev/day Decay rate: 1.011e-05 rev/day^2 Epoch rev: 22245 Checksum: 295
Satellite: STUDSAT Catalog number: 36801 Epoch time: 14232.35551134 Element set: 871 Inclination: 098.0367 deg RA of node: 334.1886 deg Eccentricity: 0.0009249 Arg of perigee: 086.9601 deg Mean anomaly: 313.9376 deg Mean motion: 14.97697441 rev/day Decay rate: 8.364e-05 rev/day^2 Epoch rev: 22273 Checksum: 322
Satellite: ALMASAT-1 Catalog number: 38078 Epoch time: 14233.81956275 Element set: 119 Inclination: 069.4666 deg RA of node: 260.5810 deg Eccentricity: 0.0585327 Arg of perigee: 304.4840 deg Mean anomaly: 100.9742 deg Mean motion: 14.52905204 rev/day Decay rate: 2.3810e-04 rev/day^2 Epoch rev: 13116 Checksum: 295
Satellite: XATCOBEO Catalog number: 38082 Epoch time: 14233.83057624 Element set: 516 Inclination: 069.4264 deg RA of node: 126.1299 deg Eccentricity: 0.0102891 Arg of perigee: 229.1619 deg Mean anomaly: 196.8821 deg Mean motion: 15.93999105 rev/day Decay rate: 7.76804e-03 rev/day^2 Epoch rev: 13470 Checksum: 332
Satellite: CUBEBUG-1 Catalog number: 39153 Epoch time: 14233.76525024 Element set: 405 Inclination: 098.0398 deg RA of node: 313.9302 deg Eccentricity: 0.0018398 Arg of perigee: 136.6107 deg Mean anomaly: 223.6543 deg Mean motion: 14.77845593 rev/day Decay rate: 5.43e-06 rev/day^2 Epoch rev: 7124 Checksum: 300
Satellite: ESTCUBE-1 Catalog number: 39161 Epoch time: 14233.83772711 Element set: 402 Inclination: 098.0942 deg RA of node: 314.2475 deg Eccentricity: 0.0009919 Arg of perigee: 178.2354 deg Mean anomaly: 181.8884 deg Mean motion: 14.70101620 rev/day Decay rate: 4.05e-06 rev/day^2 Epoch rev: 6924 Checksum: 292
Satellite: DUCHIFAT-1 Catalog number: 40021 Epoch time: 14233.69543134 Element set: 182 Inclination: 097.9763 deg RA of node: 128.4725 deg Eccentricity: 0.0016059 Arg of perigee: 084.6225 deg Mean anomaly: 275.6831 deg Mean motion: 14.85483125 rev/day Decay rate: 1.107e-05 rev/day^2 Epoch rev: 930 Checksum: 288
Satellite: NANOSATCBR1 Catalog number: 40024 Epoch time: 14233.69951969 Element set: 175 Inclination: 097.9774 deg RA of node: 128.4574 deg Eccentricity: 0.0014897 Arg of perigee: 080.8537 deg Mean anomaly: 279.4365 deg Mean motion: 14.85374300 rev/day Decay rate: 9.10e-06 rev/day^2 Epoch rev: 930 Checksum: 327
Satellite: DTUSAT-2 Catalog number: 40030 Epoch time: 14233.64862296 Element set: 172 Inclination: 097.9754 deg RA of node: 128.3605 deg Eccentricity: 0.0014108 Arg of perigee: 077.7562 deg Mean anomaly: 282.5238 deg Mean motion: 14.84969649 rev/day Decay rate: 7.98e-06 rev/day^2 Epoch rev: 930 Checksum: 325
